[[{"header":{"parameterUnit":"m.s-1","parameterCategory":1,"la1":30.2991,"la2":30.254,"lo1":-89.0895,"lo2":-89.0444,"dy":0.0017,"dx":0.0017,"nx":28,"ny":28,"refTime":"2023-10-28T09:00:00:Z","depth":0,"parameterNumber":2,"parameterNumberName":"U-component_of_WINDS"},"data":[0,0,0,0,0,0,0,0,0,0,0,0,0,0,0,0,0,0,0,0,0,0,0,0,0,0,0,0,0,0,0,0,0,0,0,0,0,0,0,0,0,0,0,0,0,0,0,0,0,0,0,0,0,0,0,0,0,0,-2.6528,-2.6528,0,-2.6549,-2.6549,-2.6549,-2.648,-2.6478,-2.6475,-2.6473,-2.6497,-2.65,-2.6502,0,0,0,0,0,0,0,0,0,0,0,0,0,-2.643,-2.6432,-2.6528,-2.6528,-2.6528,-2.6549,-2.6549,-2.655,-2.648,-2.6477,-2.6475,-2.6473,-2.6496,-2.65,-2.6503,0,0,0,0,0,0,0,0,0,0,0,0,0,-2.6464,-2.6433,-2.6528,-2.6496,-2.6494,-2.6549,-2.6549,-2.655,-2.6481,-2.6477,-2.6474,-2.6471,-2.6495,-2.6499,-2.6503,-2.6591,0,0,-2.6515,-2.6517,0,0,0,0,0,0,0,0,-2.6462,-2.6468,-2.6501,-2.6498,-2.6496,-2.6508,-2.6523,-2.6563,-2.6481,-2.6486,-2.6473,-2.647,-2.6504,-2.6507,-2.6518,-2.6592,-2.6593,-2.6515,-2.6518,-2.6519,-2.6521,0,0,0,0,0,0,0,-2.646,-2.6466,-2.6536,-2.6501,-2.6498,-2.6482,-2.6483,-2.6531,-2.6512,-2.6485,-2.648,-2.6483,-2.6502,-2.6514,-2.6518,-2.6593,-2.6515,-2.6519,-2.6521,-2.6523,-2.6741,-2.6744,0,0,0,0,0,0,-2.6461,-2.6465,-2.6536,-2.6537,-2.6471,-2.6486,-2.6488,-2.6508,-2.6512,-2.6509,-2.6486,-2.648,-2.6509,-2.6513,-2.6518,-2.6621,-2.6519,-2.6523,-2.6525,-2.6738,-2.6742,-2.6746,0,0,0,0,0,0,-2.646,-2.6468,-2.6535,-2.65,-2.6507,-2.6491,-2.6514,-2.651,-2.6522,-2.6512,-2.6509,-2.6502,-2.6507,-2.6513,-2.6573,-2.6621,-2.6525,-2.6528,-2.6734,-2.6739,-2.6744,-2.6828,0,0,0,0,0,0,-2.6457,-2.6468,-2.65,-2.6501,-2.6509,-2.6589,-2.6517,-2.6512,-2.6529,-2.6521,-2.6526,-2.6524,-2.6505,-2.6568,-2.6577,-2.6625,-2.6531,-2.6729,-2.6736,-2.6742,-2.6821,-2.6836,-2.6848,0,0,0,0,0,-2.6454,-2.6524,-2.6502,-2.6511,-2.6549,-2.6591,-2.6596,-2.6572,-2.6533,-2.6566,-2.656,-2.6524,-2.6615,-2.6575,-2.6584,-2.6634,-2.6726,-2.6734,-2.6742,-2.6815,-2.6833,-2.6848,0,0,0,0,0,0,-2.653,-2.6523,-2.6499,-2.6571,-2.6583,-2.658,-2.662,-2.6591,-2.6614,-2.6606,-2.6576,-2.6578,-2.6644,-2.6645,-2.66,-2.672,-2.6664,-2.6674,-2.6716,-2.6733,-2.6746,-2.6744,-2.6535,0,0,0,0,0,-2.6555,-2.6589,-2.6582,-2.6646,-2.6653,-2.6636,-2.6654,-2.6634,-2.6644,-2.6649,-2.6647,-2.666,-2.6691,-2.6712,-2.674,-2.6821,-2.6822,-2.686,-2.6874,-2.6885,-2.6894,-2.6938,-2.6955,-2.6771,-2.6771,-2.6771,0,0,-2.6607,-2.6608,-2.6631,-2.6661,-2.6668,-2.6705,-2.664,-2.6682,-2.671,-2.6655,-2.6712,-2.6712,-2.6723,-2.6795,-2.6826,-2.6798,-2.6945,-2.6895,-2.6904,-2.6907,-2.6948,-2.6965,-2.698,-2.6776,-2.6775,-2.6775,0,0,-2.6721,-2.6725,-2.6779,-2.6787,-2.6797,-2.6785,-2.6799,-2.6801,-2.6798,-2.6854,-2.6815,-2.6848,-2.6902,-2.6912,-2.6924,-2.7044,-2.7012,-2.7054,-2.7125,-2.7168,-2.7182,-2.7195,-2.7238,-2.7253,-2.7063,-2.7064,-2.7064,0,-2.6785,-2.6838,-2.6811,-2.6855,-2.687,-2.6823,-2.6878,-2.6887,-2.6906,-2.6918,-2.6886,-2.6954,-2.6959,-2.7032,-2.7061,-2.7073,-2.7087,-2.7053,-2.7182,-2.7195,-2.7206,-2.7247,-2.7263,-2.7069,-2.7068,-2.7067,-2.7067,0,-2.6916,-2.6954,-2.6997,-2.7016,-2.7036,-2.7086,-2.7067,-2.709,-2.707,-2.7062,-2.712,-2.7125,-2.7153,-2.7169,-2.7149,-2.724,-2.7222,-2.7187,-2.713,-2.7229,-2.7267,-2.7282,-2.7076,-2.7074,-2.7072,-2.7071,0,0,-2.7077,-2.7082,-2.7098,-2.7106,-2.7115,-2.7144,-2.7193,-2.722,-2.7241,-2.7256,-2.7297,-2.7344,-2.7312,-2.7326,-2.7307,-2.7345,-2.744,-2.7305,-2.7305,-2.733,-2.7541,-2.7567,-2.7586,-2.7419,-2.7422,-2.7424,-2.754,0,-2.7189,-2.7271,-2.7248,-2.733,-2.7366,-2.7322,-2.7364,-2.7375,-2.7369,-2.7399,-2.7393,-2.7427,-2.7382,-2.739,-2.7425,-2.7421,-2.7482,-2.7412,-2.7457,-2.7459,-2.7455,-2.7605,-2.7633,-2.7741,-2.7554,-2.7557,-2.7559,0,-2.733,-2.7351,-2.7437,-2.744,-2.7454,-2.7492,-2.7516,-2.7545,-2.7557,-2.755,-2.7567,-2.754,-2.7589,-2.7533,-2.76,-2.7553,-2.757,-2.7571,-2.7575,-2.7577,-2.7514,-2.7612,-2.7775,-2.7792,-2.7582,-2.758,-2.7578,0,-2.744,-2.7489,-2.7547,-2.7555,-2.7561,-2.7589,-2.7593,-2.7601,-2.7619,-2.7641,-2.7652,-2.7679,-2.7694,-2.7716,-2.7699,-2.7659,-2.7769,-2.7711,-2.7766,-2.7766,-2.779,-2.7789,-2.7959,-2.7802,-2.7802,-2.7802,-2.7801,0,-2.7567,-2.7621,-2.7596,-2.7631,-2.7691,-2.7665,-2.7725,-2.7724,-2.7732,-2.7767,-2.7732,-2.7766,-2.7741,-2.7773,-2.776,-2.7818,-2.7825,-2.7821,-2.7817,-2.7824,-2.7825,-2.7835,-2.7827,-2.7806,-2.7805,-2.7804,-2.7803,0,-2.7698,-2.7683,-2.7743,-2.7744,-2.7746,-2.779,-2.7791,-2.7824,-2.7816,-2.7861,-2.7871,-2.7859,-2.7895,-2.788,-2.7918,-2.7909,-2.7984,-2.797,-2.798,-2.7976,-2.8031,-2.8026,-2.8213,-2.8237,-2.8065,-2.8067,-2.8069,0,-2.778,-2.782,-2.7826,-2.7846,-2.7853,-2.7887,-2.7905,-2.7882,-2.7903,-2.792,-2.7951,-2.7984,-2.8009,-2.807,-2.8065,-2.8095,-2.8081,-2.8145,-2.8085,-2.8091,-2.8082,-2.808,-2.8084,-2.8156,-2.8158,-2.816,-2.8161,0,-2.7927,-2.7918,-2.7945,-2.7971,-2.7994,-2.8014,-2.803,-2.8049,-2.8027,-2.8052,-2.8089,-2.8108,-2.8148,-2.8181,-2.8207,-2.8212,-2.8184,-2.818,-2.8194,-2.8202,-2.8206,-2.8204,-2.8012,-2.8176,-2.8174,-2.8173,-2.8172,-2.8172,-2.8036,-2.807,-2.8079,-2.8112,-2.8122,-2.8138,-2.8169,-2.8166,-2.8195,-2.8225,-2.821,-2.8253,-2.8264,-2.8297,-2.8306,-2.8339,-2.8314,-2.8335,-2.834,-2.8346,-2.8353,-2.8201,-2.8344,-2.8344,-2.8343,-2.8343,-2.8343,0,-2.8181,-2.8185,-2.8215,-2.8239,-2.8265,-2.8235,-2.8252,-2.8276,-2.8313,-2.8326,-2.8352,-2.8394,-2.8427,-2.8426,-2.8456,-2.8483,-2.8471,-2.8492,-2.849,-2.8492,-2.8373,-2.8358,-2.8502,-2.8502,-2.8502,-2.8502,-2.8502,-2.8502,-2.8259,-2.8316,-2.8308,-2.837,-2.8374,-2.8414,-2.8427,-2.8442,-2.8452,-2.8501,-2.8528,-2.8527,-2.8534,-2.8565,-2.8594,-2.8593,-2.8606,-2.8632,-2.8626,-2.8516,-2.85,-2.8485,-2.847,-2.8635,-2.8635,-2.8742,-2.8743,-2.8743]},{"header":{"parameterUnit":"m.s-1","parameterCategory":1,"la1":30.2991,"la2":30.254,"lo1":-89.0895,"lo2":-89.0444,"dy":0.0017,"dx":0.0017,"nx":28,"ny":28,"refTime":"2023-10-28T09:00:00:Z","depth":0,"parameterNumber":3,"parameterNumberName":"V-component_of_WINDS"},"data":[0,0,0,0,0,0,0,0,0,0,0,0,0,0,0,0,0,0,0,0,0,0,0,0,0,0,0,0,0,0,0,0,0,0,0,0,0,0,0,0,0,0,0,0,0,0,0,0,0,0,0,0,0,0,0,0,0,0,0.5035,0.5035,0,0.5056,0.5056,0.5056,0.5066,0.5066,0.5066,0.5065,0.5088,0.5088,0.5089,0,0,0,0,0,0,0,0,0,0,0,0,0,0.5005,0.5005,0.5035,0.5035,0.5035,0.5056,0.5056,0.5056,0.5066,0.5066,0.5065,0.5065,0.5087,0.5088,0.5089,0,0,0,0,0,0,0,0,0,0,0,0,0,0.5021,0.5006,0.5035,0.5042,0.5043,0.5056,0.5056,0.5057,0.5066,0.5066,0.5065,0.5065,0.5087,0.5088,0.5089,0.5096,0,0,0.5092,0.5092,0,0,0,0,0,0,0,0,0.502,0.5022,0.5041,0.5042,0.5043,0.5058,0.5054,0.507,0.5066,0.5057,0.5065,0.5065,0.5078,0.508,0.5084,0.5097,0.5098,0.5092,0.5093,0.5093,0.5093,0,0,0,0,0,0,0,0.5019,0.5021,0.5043,0.5041,0.5042,0.5046,0.5048,0.5057,0.5068,0.5058,0.5059,0.5061,0.5078,0.5083,0.5084,0.5098,0.5092,0.5093,0.5093,0.5094,0.5121,0.5121,0,0,0,0,0,0,0.5016,0.502,0.5042,0.5044,0.5031,0.5046,0.5049,0.5053,0.5067,0.507,0.5061,0.5061,0.5081,0.5083,0.5085,0.5096,0.5093,0.5094,0.5094,0.5121,0.5121,0.5121,0,0,0,0,0,0,0.5016,0.5018,0.5042,0.5032,0.5036,0.5047,0.5052,0.5054,0.5058,0.507,0.5072,0.5063,0.5081,0.5084,0.5094,0.5097,0.5094,0.5095,0.5121,0.5121,0.5121,0.5116,0,0,0,0,0,0,0.5015,0.5018,0.502,0.5032,0.5036,0.5049,0.5052,0.5054,0.506,0.506,0.5073,0.5075,0.5081,0.5092,0.5095,0.5098,0.5096,0.5121,0.5121,0.5121,0.5116,0.5116,0.5116,0,0,0,0,0,0.5014,0.5017,0.502,0.5023,0.5038,0.5049,0.5051,0.5059,0.506,0.5062,0.507,0.5074,0.5096,0.5093,0.5096,0.51,0.512,0.5121,0.5121,0.5116,0.5116,0.5116,0,0,0,0,0,0,0.5004,0.5019,0.5022,0.5029,0.5038,0.5051,0.5054,0.5058,0.5067,0.5067,0.5077,0.508,0.5089,0.5095,0.5092,0.5108,0.5109,0.511,0.5104,0.5104,0.5104,0.5103,0.5097,0,0,0,0,0,0.5003,0.501,0.5022,0.5028,0.5032,0.5042,0.5047,0.5053,0.5062,0.5066,0.5074,0.5084,0.5093,0.5099,0.5108,0.5117,0.5121,0.5121,0.5121,0.5121,0.5122,0.513,0.5131,0.5123,0.5123,0.5123,0,0,0.5,0.5009,0.5013,0.5026,0.5033,0.5042,0.5045,0.5053,0.5059,0.5067,0.5077,0.5084,0.5096,0.5106,0.5111,0.5111,0.5126,0.5122,0.5122,0.5123,0.5131,0.5131,0.5132,0.5123,0.5123,0.5123,0,0,0.5,0.5007,0.5013,0.5021,0.5032,0.504,0.5041,0.5054,0.5059,0.5069,0.5076,0.5084,0.5099,0.5108,0.5114,0.5121,0.5125,0.5123,0.5124,0.5131,0.5132,0.5133,0.5136,0.5137,0.5124,0.5124,0.5124,0,0.4995,0.5007,0.5016,0.5024,0.503,0.5038,0.5046,0.5053,0.5067,0.5071,0.5072,0.5093,0.5101,0.5115,0.5116,0.5121,0.5124,0.5122,0.5131,0.5132,0.5132,0.5136,0.5138,0.5124,0.5124,0.5124,0.5124,0,0.5002,0.501,0.5014,0.5028,0.5035,0.5042,0.5053,0.5059,0.5065,0.5073,0.5085,0.5095,0.5108,0.5111,0.5116,0.5127,0.5127,0.5129,0.513,0.5133,0.5137,0.5138,0.5123,0.5124,0.5124,0.5124,0,0,0.4994,0.5014,0.5016,0.5023,0.5038,0.5045,0.5054,0.5066,0.5073,0.5082,0.5091,0.5105,0.5108,0.5116,0.5122,0.5129,0.5136,0.5131,0.5131,0.5132,0.515,0.5149,0.515,0.5139,0.5139,0.5139,0.5149,0,0.4996,0.5012,0.5022,0.5034,0.5043,0.5052,0.5061,0.5071,0.508,0.5089,0.5099,0.5109,0.5111,0.5116,0.5123,0.5133,0.5139,0.5132,0.5148,0.5149,0.5146,0.5152,0.515,0.5159,0.5151,0.5151,0.5151,0,0.5,0.5011,0.5025,0.5041,0.5045,0.5052,0.5066,0.5074,0.5088,0.5093,0.5103,0.511,0.5122,0.5122,0.5139,0.5134,0.5142,0.5148,0.5149,0.5151,0.515,0.5155,0.5162,0.5163,0.5153,0.5153,0.5153,0,0.4995,0.5013,0.5024,0.503,0.5049,0.5054,0.5062,0.5075,0.5083,0.5095,0.5101,0.5114,0.5122,0.5133,0.5144,0.5143,0.5161,0.5161,0.5167,0.5167,0.5171,0.517,0.5179,0.5174,0.5174,0.5174,0.5174,0,0.4997,0.5005,0.5022,0.5029,0.504,0.5051,0.5062,0.5071,0.5083,0.5093,0.5102,0.5111,0.5125,0.5137,0.5146,0.516,0.5163,0.5169,0.5171,0.5169,0.5168,0.5174,0.5174,0.5175,0.5174,0.5174,0.5174,0,0.4992,0.5004,0.5017,0.5034,0.5039,0.5046,0.5061,0.5069,0.5079,0.5092,0.5096,0.5111,0.5125,0.5138,0.5156,0.5163,0.5178,0.518,0.5173,0.5175,0.5181,0.518,0.5194,0.5198,0.5189,0.5189,0.5189,0,0.4992,0.4999,0.5018,0.5025,0.5034,0.5045,0.5054,0.5066,0.5075,0.5093,0.5099,0.5114,0.5127,0.515,0.5163,0.5179,0.5182,0.5186,0.5184,0.5182,0.5184,0.5184,0.5186,0.5186,0.5186,0.5186,0.5186,0,0.4992,0.4999,0.501,0.5025,0.5035,0.5047,0.506,0.5065,0.5081,0.5091,0.5106,0.5116,0.5136,0.5152,0.5169,0.5179,0.5186,0.5187,0.5189,0.5187,0.5183,0.5187,0.5175,0.5186,0.5186,0.5186,0.5186,0.5186,0.4991,0.4999,0.5014,0.5027,0.5038,0.5051,0.506,0.5071,0.5084,0.5102,0.5109,0.5125,0.5141,0.5165,0.5175,0.5189,0.519,0.5193,0.5194,0.5194,0.5195,0.5181,0.5192,0.5192,0.5192,0.5192,0.5192,0,0.4993,0.5003,0.5016,0.5034,0.5045,0.5051,0.5066,0.5075,0.5089,0.5104,0.5117,0.5136,0.5152,0.5168,0.5185,0.5193,0.5197,0.5198,0.5197,0.52,0.5192,0.5189,0.5194,0.5194,0.5194,0.5194,0.5194,0.5194,0.4995,0.5008,0.5017,0.5037,0.5048,0.5064,0.5073,0.5085,0.5097,0.5117,0.5131,0.5141,0.5157,0.5176,0.5192,0.5196,0.5203,0.5203,0.5208,0.5201,0.52,0.52,0.5197,0.5204,0.5204,0.5215,0.5215,0.5215]}]]